[[{"header":{"parameterUnit":"m.s-1","parameterCategory":1,"la1":30.2991,"la2":30.254,"lo1":-89.0895,"lo2":-89.0444,"dy":0.0017,"dx":0.0017,"nx":28,"ny":28,"refTime":"2024-08-02T21:00:00:Z","depth":0,"parameterNumber":2,"parameterNumberName":"U-component_of_WINDS"},"data":[0,0,0,0,0,0,0,0,0,0,0,0,0,0,0,0,0,0,0,0,0,0,0,0,0,0,0,0,0,0,0,0,0,0,0,0,0,0,0,0,0,0,0,0,0,0,0,0,0,0,0,0,0,0,0,0,0,0,1.4066,1.4067,0,1.4139,1.414,1.4141,1.4142,1.4141,1.414,1.4139,1.4217,1.422,1.4223,0,0,0,0,0,0,0,0,0,0,0,0,0,1.3929,1.3931,1.4066,1.4067,1.4068,1.4139,1.414,1.4141,1.4142,1.4141,1.414,1.4138,1.4216,1.422,1.4223,0,0,0,0,0,0,0,0,0,0,0,0,0,1.3994,1.3932,1.4066,1.4076,1.4078,1.4139,1.414,1.4141,1.4142,1.4141,1.4139,1.4138,1.4215,1.4219,1.4224,1.4279,0,0,1.4237,1.4239,0,0,0,0,0,0,0,0,1.399,1.3999,1.4074,1.4076,1.4078,1.413,1.412,1.4188,1.4142,1.4118,1.4139,1.4137,1.4189,1.4196,1.4213,1.4283,1.4286,1.4238,1.424,1.4242,1.4243,0,0,0,0,0,0,0,1.3986,1.3996,1.4095,1.4075,1.4077,1.4079,1.4086,1.4133,1.4161,1.412,1.412,1.4129,1.419,1.4208,1.4215,1.4287,1.4237,1.4241,1.4244,1.4246,1.4406,1.4408,0,0,0,0,0,0,1.3979,1.3992,1.4093,1.4097,1.403,1.4082,1.4091,1.4115,1.416,1.4166,1.413,1.4128,1.4202,1.4209,1.4217,1.4284,1.4242,1.4246,1.4249,1.4404,1.4406,1.4408,0,0,0,0,0,0,1.3976,1.3988,1.409,1.4045,1.4058,1.4086,1.4113,1.4117,1.4135,1.4168,1.4173,1.4143,1.4201,1.4211,1.4263,1.4287,1.4248,1.4252,1.4403,1.4405,1.4407,1.442,0,0,0,0,0,0,1.3972,1.3987,1.4007,1.4045,1.406,1.4134,1.4114,1.4119,1.4142,1.4141,1.4182,1.4187,1.42,1.4257,1.4268,1.4293,1.4256,1.4401,1.4404,1.4407,1.4417,1.4422,1.4426,0,0,0,0,0,1.3967,1.4009,1.4008,1.402,1.4086,1.4135,1.4144,1.4157,1.4144,1.4166,1.4187,1.4186,1.4283,1.4262,1.4275,1.4301,1.4399,1.4403,1.4406,1.4415,1.4421,1.4426,0,0,0,0,0,0,1.3974,1.4014,1.4014,1.4069,1.4098,1.4135,1.4162,1.4164,1.4198,1.4196,1.4213,1.4222,1.4273,1.4293,1.4269,1.4357,1.434,1.4346,1.4342,1.4348,1.4353,1.4346,1.4259,0,0,0,0,0,1.3982,1.4017,1.405,1.4096,1.411,1.4134,1.4156,1.4164,1.4195,1.4208,1.4233,1.4264,1.4302,1.4326,1.4363,1.442,1.4429,1.4445,1.4449,1.4453,1.4458,1.4489,1.4496,1.442,1.442,1.442,0,0,1.3999,1.4025,1.4046,1.4098,1.4121,1.4158,1.4144,1.4184,1.4211,1.4214,1.4264,1.4284,1.432,1.4375,1.4401,1.4393,1.4481,1.4458,1.446,1.4463,1.4493,1.4501,1.4507,1.4422,1.4422,1.4422,0,0,1.4047,1.4071,1.4111,1.4135,1.417,1.4186,1.4195,1.4232,1.4244,1.4295,1.4298,1.4331,1.4396,1.4421,1.4443,1.4501,1.4501,1.4513,1.4536,1.4566,1.4572,1.4578,1.4597,1.4605,1.4518,1.4518,1.4518,0,1.4064,1.4118,1.4131,1.417,1.4193,1.4197,1.4237,1.426,1.4307,1.4322,1.4313,1.4394,1.4419,1.4479,1.4493,1.4511,1.4522,1.4508,1.457,1.4576,1.4581,1.46,1.4608,1.4519,1.4519,1.4519,1.4518,0,1.4136,1.4173,1.4202,1.4245,1.4271,1.4311,1.4331,1.4356,1.4362,1.4378,1.443,1.446,1.4502,1.4517,1.4524,1.4578,1.4572,1.4566,1.4549,1.4589,1.4607,1.4615,1.452,1.452,1.452,1.4519,0,0,1.419,1.424,1.425,1.4269,1.4309,1.4339,1.4379,1.4419,1.444,1.4472,1.4506,1.4561,1.4555,1.458,1.459,1.4616,1.4659,1.4607,1.4608,1.4615,1.472,1.4723,1.4732,1.466,1.4662,1.4663,1.4717,0,1.4242,1.4312,1.4325,1.4387,1.4421,1.4426,1.4461,1.4489,1.4506,1.4539,1.4558,1.4595,1.4586,1.4601,1.4627,1.4648,1.4681,1.4645,1.4692,1.4693,1.4681,1.4741,1.4745,1.4794,1.4724,1.4725,1.4726,0,1.4311,1.4344,1.4408,1.4443,1.4458,1.4489,1.4527,1.4558,1.4591,1.4601,1.4628,1.4635,1.4677,1.4659,1.4718,1.4693,1.4713,1.4727,1.4729,1.4733,1.4711,1.4746,1.481,1.4817,1.4738,1.4737,1.4736,0,1.4343,1.4403,1.4449,1.4466,1.4508,1.4529,1.4548,1.4579,1.4603,1.4636,1.4651,1.469,1.4711,1.4741,1.4758,1.4743,1.4815,1.4798,1.4825,1.4824,1.4839,1.4837,1.4906,1.4854,1.4854,1.4854,1.4853,0,1.4398,1.4437,1.4463,1.4492,1.4535,1.4551,1.4594,1.4613,1.4641,1.4673,1.468,1.4711,1.4732,1.4766,1.478,1.4826,1.4836,1.4845,1.4848,1.4844,1.4842,1.4856,1.4853,1.4856,1.4855,1.4855,1.4854,0,1.444,1.4459,1.4509,1.4545,1.4555,1.4586,1.4616,1.4644,1.4661,1.4702,1.4712,1.4739,1.4779,1.4799,1.485,1.4859,1.491,1.4912,1.4899,1.49,1.4924,1.4921,1.5004,1.5015,1.4956,1.4957,1.4957,0,1.4474,1.4503,1.4542,1.4563,1.4582,1.4617,1.4641,1.4658,1.4682,1.4722,1.4745,1.4785,1.4817,1.4881,1.4905,1.4944,1.4946,1.4972,1.4951,1.4946,1.4945,1.4942,1.4945,1.4975,1.4976,1.4976,1.4977,0,1.453,1.4538,1.4571,1.4608,1.4635,1.4665,1.4694,1.4712,1.4734,1.4761,1.4801,1.4827,1.4877,1.4917,1.4957,1.4977,1.498,1.4983,1.4991,1.4986,1.4976,1.4981,1.4907,1.4981,1.498,1.498,1.498,1.498,1.4568,1.4595,1.4626,1.4662,1.4686,1.4713,1.4741,1.4761,1.4794,1.4836,1.4845,1.4887,1.492,1.4973,1.4995,1.5029,1.5023,1.5035,1.5038,1.504,1.504,1.4972,1.5036,1.5036,1.5036,1.5036,1.5036,0,1.4624,1.4644,1.4678,1.4718,1.4747,1.4748,1.478,1.4804,1.4841,1.4871,1.4903,1.4949,1.4987,1.5015,1.5054,1.5076,1.5078,1.5085,1.5083,1.5088,1.5044,1.5032,1.5082,1.5082,1.5082,1.5082,1.5082,1.5082,1.4657,1.4701,1.4713,1.4769,1.479,1.483,1.4849,1.4874,1.4898,1.4948,1.498,1.4997,1.5026,1.5068,1.5103,1.511,1.5124,1.513,1.5138,1.5096,1.5091,1.5086,1.5075,1.5134,1.5134,1.5178,1.5179,1.5179]},{"header":{"parameterUnit":"m.s-1","parameterCategory":1,"la1":30.2991,"la2":30.254,"lo1":-89.0895,"lo2":-89.0444,"dy":0.0017,"dx":0.0017,"nx":28,"ny":28,"refTime":"2024-08-02T21:00:00:Z","depth":0,"parameterNumber":3,"parameterNumberName":"V-component_of_WINDS"},"data":[0,0,0,0,0,0,0,0,0,0,0,0,0,0,0,0,0,0,0,0,0,0,0,0,0,0,0,0,0,0,0,0,0,0,0,0,0,0,0,0,0,0,0,0,0,0,0,0,0,0,0,0,0,0,0,0,0,0,5.5281,5.5282,0,5.5344,5.5344,5.5345,5.5302,5.53,5.5298,5.5296,5.5351,5.5354,5.5358,0,0,0,0,0,0,0,0,0,0,0,0,0,5.5114,5.5117,5.5281,5.5282,5.5282,5.5344,5.5344,5.5345,5.5302,5.53,5.5297,5.5295,5.535,5.5354,5.5358,0,0,0,0,0,0,0,0,0,0,0,0,0,5.5182,5.5118,5.5281,5.5268,5.5268,5.5343,5.5344,5.5346,5.5302,5.5299,5.5297,5.5294,5.5349,5.5354,5.5358,5.5447,0,0,5.5373,5.5376,0,0,0,0,0,0,0,0,5.5178,5.5188,5.5269,5.5269,5.5269,5.5312,5.5306,5.5379,5.5303,5.5289,5.5296,5.5292,5.534,5.5345,5.5363,5.5449,5.5452,5.5374,5.5377,5.5379,5.538,0,0,0,0,0,0,0,5.5174,5.5185,5.5305,5.527,5.527,5.5256,5.5263,5.5319,5.533,5.529,5.5287,5.5296,5.5339,5.5359,5.5364,5.5453,5.5374,5.5378,5.5381,5.5383,5.5613,5.5616,0,0,0,0,0,0,5.5171,5.5182,5.5303,5.5307,5.5216,5.5262,5.5269,5.5301,5.5329,5.5331,5.5298,5.5293,5.5352,5.5359,5.5366,5.5471,5.5379,5.5384,5.5386,5.561,5.5614,5.5618,0,0,0,0,0,0,5.5168,5.5183,5.5301,5.5244,5.5258,5.5268,5.5304,5.5304,5.5323,5.5335,5.5336,5.5317,5.535,5.5359,5.5428,5.5472,5.5386,5.539,5.5607,5.5611,5.5616,5.5682,0,0,0,0,0,0,5.5163,5.5182,5.5218,5.5245,5.5261,5.5364,5.5307,5.5307,5.5333,5.5327,5.5353,5.5354,5.5348,5.542,5.5432,5.5478,5.5394,5.5602,5.5609,5.5614,5.5676,5.5689,5.57,0,0,0,0,0,5.5157,5.5232,5.522,5.5234,5.5307,5.5367,5.5376,5.537,5.5337,5.5371,5.5379,5.5353,5.5466,5.5428,5.5441,5.5488,5.56,5.5607,5.5614,5.5671,5.5686,5.5699,0,0,0,0,0,0,5.5206,5.5235,5.5222,5.5308,5.5336,5.536,5.5403,5.5386,5.5422,5.5415,5.5403,5.5409,5.5481,5.5491,5.5449,5.5575,5.5527,5.5537,5.5566,5.558,5.5592,5.5588,5.5398,0,0,0,0,0,5.5227,5.5277,5.5298,5.5372,5.5387,5.5393,5.5419,5.5412,5.5439,5.545,5.5462,5.5487,5.5528,5.5554,5.5593,5.5677,5.5681,5.5716,5.5728,5.5737,5.5746,5.5791,5.5806,5.5641,5.5641,5.5641,0,0,5.527,5.5292,5.5324,5.5382,5.5403,5.5452,5.5403,5.5456,5.5492,5.5457,5.5523,5.5533,5.5559,5.5637,5.5671,5.5647,5.5793,5.5747,5.5754,5.5757,5.58,5.5815,5.5829,5.5646,5.5645,5.5644,0,0,5.5374,5.5397,5.5461,5.5483,5.5516,5.552,5.5535,5.5562,5.5569,5.5636,5.561,5.565,5.5721,5.5741,5.5761,5.5873,5.585,5.5885,5.5946,5.599,5.6003,5.6014,5.6054,5.6068,5.5894,5.5894,5.5894,0,5.5422,5.5499,5.5494,5.5551,5.5577,5.5551,5.5614,5.5634,5.5677,5.5694,5.5667,5.5756,5.5772,5.5853,5.5881,5.5898,5.5913,5.5882,5.6002,5.6013,5.6024,5.6061,5.6076,5.5898,5.5897,5.5897,5.5897,0,5.5556,5.5609,5.5656,5.5702,5.5733,5.5792,5.5794,5.5825,5.5816,5.5822,5.5889,5.5908,5.5949,5.5968,5.5958,5.6048,5.6032,5.6004,5.5955,5.6044,5.6079,5.6093,5.5904,5.5902,5.5901,5.59,0,0,5.5691,5.5736,5.5753,5.5774,5.5809,5.5848,5.5905,5.5949,5.5975,5.6005,5.6051,5.6112,5.6087,5.6109,5.6101,5.614,5.6227,5.6106,5.6107,5.6128,5.6325,5.6346,5.6363,5.6212,5.6215,5.6217,5.6323,0,5.5797,5.5901,5.5899,5.5994,5.6042,5.6018,5.6067,5.6092,5.6099,5.6138,5.6144,5.6188,5.6151,5.6164,5.6202,5.6208,5.6266,5.62,5.6253,5.6255,5.6247,5.6381,5.6403,5.6503,5.6337,5.6339,5.6341,0,5.5934,5.5973,5.6074,5.6102,5.6122,5.6167,5.6207,5.6246,5.6273,5.6275,5.63,5.6286,5.6341,5.6292,5.6367,5.6323,5.6343,5.635,5.6354,5.6358,5.6303,5.6389,5.6535,5.655,5.6362,5.6361,5.6359,0,5.6022,5.6099,5.6169,5.6188,5.6223,5.6255,5.627,5.6295,5.6321,5.6355,5.6372,5.641,5.6431,5.646,5.6456,5.642,5.6531,5.6482,5.6533,5.6533,5.6557,5.6555,5.6708,5.6571,5.6571,5.6571,5.657,0,5.614,5.6202,5.621,5.6253,5.6321,5.6317,5.6384,5.6396,5.6418,5.6461,5.6441,5.6481,5.6473,5.6513,5.6509,5.6571,5.658,5.6582,5.658,5.6584,5.6584,5.6597,5.659,5.6575,5.6574,5.6573,5.6572,0,5.625,5.6258,5.6333,5.6361,5.6369,5.6419,5.6441,5.648,5.6486,5.654,5.6552,5.656,5.6605,5.6604,5.6654,5.6652,5.6728,5.6718,5.672,5.6718,5.6769,5.6764,5.6935,5.6957,5.6807,5.6808,5.6809,0,5.6325,5.6373,5.6407,5.6436,5.6455,5.6501,5.6529,5.6526,5.6555,5.6591,5.6626,5.667,5.6705,5.6777,5.6785,5.6823,5.6814,5.6871,5.6819,5.6822,5.6815,5.6812,5.6816,5.6881,5.6883,5.6884,5.6886,0,5.6456,5.6458,5.6501,5.6545,5.658,5.6614,5.6645,5.6669,5.6669,5.6702,5.675,5.6778,5.6831,5.6874,5.6911,5.6923,5.6904,5.6902,5.6916,5.692,5.6919,5.692,5.6748,5.6898,5.6897,5.6896,5.6895,5.6895,5.655,5.6592,5.6623,5.6671,5.6695,5.6725,5.6764,5.6776,5.6817,5.6862,5.6857,5.691,5.6935,5.6983,5.6999,5.7038,5.7018,5.7038,5.7043,5.7048,5.7053,5.6913,5.7045,5.7044,5.7044,5.7044,5.7044,0,5.668,5.67,5.6744,5.6791,5.6828,5.681,5.6844,5.6875,5.6924,5.695,5.6986,5.704,5.7083,5.7095,5.7135,5.7164,5.7156,5.7174,5.7172,5.7175,5.7069,5.7054,5.718,5.718,5.718,5.718,5.718,5.718,5.6752,5.6822,5.6828,5.6909,5.6926,5.6981,5.7002,5.7028,5.705,5.7113,5.7149,5.7158,5.7178,5.722,5.7257,5.7259,5.7274,5.7296,5.7295,5.7196,5.7182,5.7169,5.7154,5.73,5.73,5.7397,5.7398,5.7398]}]]